CZ-6A DEB, 60692

Orbit data source: Space-Track

CZ-6A DEB, 60692 is space debris in LEO originally from a launch on Tue, 06 Aug 2024 UTC launched from the Taiyaun Space Center, China (TSC). Debris objects in space refer to the collection of defunct objects orbiting the Earth. Examples of debris include non-operational satellites, rocket bodies, and fragments generated from explosions, collisions, or faulty payload assembly.

Loading next visibility...
Identifier
60692, 2024-140CV
Orbit
LEO
Country
Flag of CNCN / PRC
Related business
Manufacturer
SAST
Mission
Spacecraft
Bus & Motor
Unknown
Mass
Unknown
Launch date (UTC)
2024-08-06 (2 years ago)
Launch vehicle
Unknown
Launch site
Taiyaun Space Center, China (TSC)
Object type
Payload
Rocket body
Debris
Shape & HBR
Unknown shape, 0.4 m
Radar Cross Section
Medium (>0.1 m² and <1 m²)

Expand to show TLE details & history
Last TLE update: 8 hours ago

TLE from 8 hours ago
0 CZ-6A DEB
1 60692U 24140CV  26118.82448640  .00003422  00000-0  98709-3 0  9995
2 60692  88.9882 277.5519 0126456 180.2289 179.8876 14.39876123 90153
Epoch: 2026-04-28T19:47Z
TLE epoch observation values (Epoch: 2026-04-28T19:47:15.624Z)
Latitude
-0.00014°
Longitude
123.94254°
Altitude
852.262 km
Speed
7.379 km/s
True Right ascension
18h 30m 12s
True Declination
0° 00' 01"
Sunlit
Object was in daylight at epoch
Visualization orbit readout
Latitude
Unknown
Longitude
Unknown
Altitude
Unknown
Speed
Unknown
Apparent Right ascension
Unknown
Apparent Declination
Unknown
Sunlit
N/A
Visualization observer readout
Local Sidereal Time
10:59:55
Azimuth
Unknown
Elevation
Unknown
Doppler factor
Unknown
Orbital elements
Apogee altitude
846.043 km
Perigee altitude
665.617 km
Semi-major axis
7,133.967 km
Eccentricity
0.01265
Inclination
88.9882°
RAAN
277.5519°
Arg. of periapsis
180.2289°
True anomaly
179.8904°
Mean anomaly
179.8876°
Eccentric anomaly
179.889°
Mean motion
3.60202 °/min
Orbital period
99.94 mins
BSTAR
0.00098709
Loading maneuver chart data...
Computing Atmospheric mass density...
Loading historical data...
Loading historical data...
Loading historical data...
Loading historical data...
Loading historical data...
Loading historical data...
Loading historical data...

Documentation

Showing up to 5 results
|